Time,TemperatureF,DewpointF,PressureIn,WindDirection,WindDirectionDegrees,WindSpeedMPH,WindSpeedGustMPH,Humidity,HourlyPrecipIn,Conditions,Clouds,dailyrainin,SoftwareType,DateUTC
2013-03-12 00:01:00,50.0,48.0,30.14,WSW,254,7.0,13.0,94,0.00,,,0.01,,2013-03-12 07:01:00,
2013-03-12 00:12:00,50.0,48.0,30.14,WSW,254,7.0,13.0,94,0.00,,,0.01,,2013-03-12 07:12:00,
2013-03-12 00:21:00,50.0,48.0,30.14,WSW,253,9.0,16.0,94,0.00,,,0.01,,2013-03-12 07:21:00,
2013-03-12 00:32:00,50.0,48.0,30.14,SW,223,6.0,12.0,93,0.00,,,0.01,,2013-03-12 07:32:00,
2013-03-12 00:42:00,50.0,48.0,30.14,SW,223,6.0,12.0,93,0.00,,,0.01,,2013-03-12 07:42:00,
2013-03-12 00:52:00,50.0,48.0,30.14,SW,226,6.0,9.0,93,0.00,,,0.01,,2013-03-12 07:52:00,
2013-03-12 01:01:00,50.0,48.0,30.14,SW,230,6.0,13.0,93,0.00,,,0.01,,2013-03-12 08:01:00,
2013-03-12 01:12:00,50.0,48.0,30.14,SW,230,6.0,13.0,93,0.00,,,0.01,,2013-03-12 08:12:00,
2013-03-12 01:22:00,50.0,48.0,30.14,SW,225,8.0,12.0,93,0.00,,,0.01,,2013-03-12 08:22:00,
2013-03-12 01:32:00,50.0,48.0,30.14,WSW,256,8.0,12.0,94,0.00,,,0.01,,2013-03-12 08:32:00,
2013-03-12 01:42:00,50.0,48.0,30.14,WSW,256,8.0,12.0,94,0.00,,,0.01,,2013-03-12 08:42:00,
2013-03-12 01:52:00,50.0,48.0,30.14,SW,227,8.0,12.0,94,0.00,,,0.01,,2013-03-12 08:52:00,
2013-03-12 02:02:00,49.0,48.0,30.14,SW,231,7.0,12.0,95,0.00,,,0.01,,2013-03-12 09:02:00,
2013-03-12 02:11:00,49.0,48.0,30.14,SW,231,7.0,12.0,95,0.00,,,0.01,,2013-03-12 09:11:00,
2013-03-12 02:22:00,49.0,48.0,30.14,SW,218,6.0,12.0,95,0.00,,,0.01,,2013-03-12 09:22:00,
2013-03-12 02:32:00,49.0,48.0,30.14,WSW,243,5.0,9.0,95,0.00,,,0.01,,2013-03-12 09:32:00,
2013-03-12 02:42:00,49.0,48.0,30.14,WSW,243,5.0,9.0,95,0.00,,,0.01,,2013-03-12 09:42:00,
2013-03-12 02:52:00,49.0,48.0,30.14,SSW,212,4.0,10.0,95,0.00,,,0.01,,2013-03-12 09:52:00,
2013-03-12 03:02:00,49.0,48.0,30.14,SSW,207,5.0,9.0,95,0.00,,,0.01,,2013-03-12 10:02:00,
2013-03-12 03:11:00,49.0,48.0,30.14,SSW,207,5.0,9.0,95,0.00,,,0.01,,2013-03-12 10:11:00,
2013-03-12 03:22:00,50.0,49.0,30.14,SW,221,6.0,9.0,95,0.00,,,0.01,,2013-03-12 10:22:00,
2013-03-12 03:32:00,50.0,49.0,30.13,West,276,4.0,9.0,95,0.00,,,0.01,,2013-03-12 10:32:00,
2013-03-12 03:42:00,50.0,49.0,30.13,West,276,4.0,9.0,95,0.00,,,0.01,,2013-03-12 10:42:00,
2013-03-12 03:52:00,50.0,49.0,30.12,WSW,245,5.0,8.0,95,0.00,,,0.01,,2013-03-12 10:52:00,
2013-03-12 04:01:00,50.0,49.0,30.13,SW,229,5.0,10.0,95,0.00,,,0.01,,2013-03-12 11:01:00,
2013-03-12 04:12:00,50.0,49.0,30.13,SW,229,5.0,10.0,95,0.00,,,0.01,,2013-03-12 11:12:00,
2013-03-12 04:22:00,50.0,49.0,30.13,SW,214,4.0,9.0,95,0.00,,,0.01,,2013-03-12 11:22:00,
2013-03-12 04:32:00,50.0,49.0,30.13,SW,235,3.0,7.0,95,0.00,,,0.01,,2013-03-12 11:32:00,
2013-03-12 04:42:00,50.0,49.0,30.13,SW,235,3.0,7.0,95,0.00,,,0.01,,2013-03-12 11:42:00,
2013-03-12 04:52:00,50.0,49.0,30.12,SE,132,3.0,7.0,95,0.00,,,0.01,,2013-03-12 11:52:00,
2013-03-12 05:02:00,50.0,48.0,30.12,SSE,159,4.0,7.0,94,0.00,,,0.01,,2013-03-12 12:02:00,
2013-03-12 05:12:00,50.0,48.0,30.12,SSE,159,4.0,7.0,94,0.00,,,0.01,,2013-03-12 12:12:00,
2013-03-12 05:22:00,49.0,47.0,30.12,SE,135,4.0,8.0,94,0.00,,,0.01,,2013-03-12 12:22:00,
2013-03-12 05:32:00,49.0,47.0,30.12,SSW,194,3.0,6.0,94,0.00,,,0.01,,2013-03-12 12:32:00,
2013-03-12 05:42:00,49.0,47.0,30.12,SSW,194,3.0,6.0,94,0.00,,,0.01,,2013-03-12 12:42:00,
2013-03-12 05:52:00,49.0,47.0,30.13,SE,129,3.0,4.0,94,0.00,,,0.01,,2013-03-12 12:52:00,
2013-03-12 06:01:00,49.0,47.0,30.13,East,100,3.0,5.0,94,0.00,,,0.01,,2013-03-12 13:01:00,
2013-03-12 06:12:00,49.0,47.0,30.13,East,100,3.0,5.0,94,0.00,,,0.01,,2013-03-12 13:12:00,
2013-03-12 06:22:00,49.0,47.0,30.13,East,82,2.0,5.0,94,0.00,,,0.00,,2013-03-12 13:22:00,
2013-03-12 06:32:00,49.0,47.0,30.13,ESE,121,4.0,6.0,94,0.00,,,0.00,,2013-03-12 13:32:00,
2013-03-12 06:42:00,49.0,47.0,30.13,ESE,121,4.0,6.0,94,0.00,,,0.00,,2013-03-12 13:42:00,
2013-03-12 06:52:00,49.0,47.0,30.13,SE,129,1.0,6.0,94,0.00,,,0.00,,2013-03-12 13:52:00,
2013-03-12 07:02:00,49.0,47.0,30.13,SW,234,2.0,4.0,94,0.00,,,0.00,,2013-03-12 14:02:00,
2013-03-12 07:11:00,49.0,47.0,30.13,SW,234,2.0,4.0,94,0.00,,,0.00,,2013-03-12 14:11:00,
2013-03-12 07:21:00,49.0,47.0,30.13,SW,215,2.0,5.0,94,0.00,,,0.00,,2013-03-12 14:21:00,
2013-03-12 07:32:00,49.0,47.0,30.13,WSW,251,2.0,4.0,94,0.00,,,0.00,,2013-03-12 14:32:00,
2013-03-12 07:42:00,49.0,47.0,30.13,WSW,251,2.0,4.0,94,0.00,,,0.00,,2013-03-12 14:42:00,
2013-03-12 07:53:00,49.0,48.0,30.14,West,264,2.0,5.0,95,0.00,,,0.00,,2013-03-12 14:53:00,
2013-03-12 08:01:00,49.0,48.0,30.14,West,266,1.0,2.0,95,0.00,,,0.00,,2013-03-12 15:01:00,
2013-03-12 08:12:00,49.0,48.0,30.14,West,266,1.0,2.0,95,0.00,,,0.00,,2013-03-12 15:12:00,
2013-03-12 08:22:00,49.0,48.0,30.14,West,271,1.0,2.0,95,0.00,,,0.00,,2013-03-12 15:22:00,
2013-03-12 08:32:00,49.0,48.0,30.14,SSW,206,2.0,4.0,95,0.00,,,0.00,,2013-03-12 15:32:00,
2013-03-12 08:41:00,49.0,48.0,30.14,SSW,206,2.0,4.0,95,0.00,,,0.00,,2013-03-12 15:41:00,
2013-03-12 08:53:00,49.0,48.0,30.15,SW,221,2.0,4.0,95,0.00,,,0.00,,2013-03-12 15:53:00,
2013-03-12 09:02:00,48.0,47.0,30.16,WSW,243,2.0,4.0,95,0.00,,,0.00,,2013-03-12 16:02:00,
2013-03-12 09:12:00,48.0,47.0,30.16,WSW,243,2.0,4.0,95,0.00,,,0.00,,2013-03-12 16:12:00,
2013-03-12 09:22:00,49.0,48.0,30.16,SW,224,0.0,2.0,95,0.00,,,0.00,,2013-03-12 16:22:00,
2013-03-12 09:32:00,49.0,48.0,30.16,SSW,210,0.0,2.0,95,0.00,,,0.00,,2013-03-12 16:32:00,
2013-03-12 09:42:00,49.0,48.0,30.16,SSW,210,0.0,2.0,95,0.00,,,0.00,,2013-03-12 16:42:00,
2013-03-12 09:52:00,49.0,48.0,30.16,WSW,246,0.0,2.0,95,0.00,,,0.00,,2013-03-12 16:52:00,
2013-03-12 10:02:00,49.0,48.0,30.17,SW,229,2.0,4.0,95,0.00,,,0.00,,2013-03-12 17:02:00,
2013-03-12 10:12:00,49.0,48.0,30.17,SW,229,2.0,4.0,95,0.00,,,0.00,,2013-03-12 17:12:00,
2013-03-12 10:22:00,49.0,48.0,30.17,SSW,210,0.0,0.0,95,0.00,,,0.00,,2013-03-12 17:22:00,
2013-03-12 10:33:00,50.0,48.0,30.17,SW,220,1.0,4.0,94,0.00,,,0.00,,2013-03-12 17:33:00,
2013-03-12 10:43:00,50.0,48.0,30.17,SW,220,1.0,4.0,94,0.00,,,0.00,,2013-03-12 17:43:00,
2013-03-12 10:53:00,50.0,48.0,30.17,SW,219,2.0,4.0,94,0.00,,,0.00,,2013-03-12 17:53:00,
2013-03-12 11:02:00,51.0,49.0,30.17,WSW,245,4.0,7.0,93,0.00,,,0.00,,2013-03-12 18:02:00,
2013-03-12 11:12:00,51.0,48.0,30.16,SW,218,4.0,6.0,90,0.00,,,0.00,,2013-03-12 18:12:00,
2013-03-12 11:22:00,51.0,48.0,30.16,SW,218,4.0,6.0,90,0.00,,,0.00,,2013-03-12 18:22:00,
2013-03-12 11:32:00,53.0,50.0,30.17,SW,234,3.0,7.0,90,0.00,,,0.00,,2013-03-12 18:32:00,
2013-03-12 11:42:00,53.0,50.0,30.17,SW,234,3.0,7.0,90,0.00,,,0.00,,2013-03-12 18:42:00,
2013-03-12 11:53:00,52.0,49.0,30.16,WSW,244,4.0,8.0,88,0.00,,,0.00,,2013-03-12 18:53:00,
2013-03-12 12:02:00,52.0,49.0,30.16,SW,227,4.0,7.0,90,0.00,,,0.00,,2013-03-12 19:02:00,
2013-03-12 12:12:00,52.0,49.0,30.16,SW,227,4.0,7.0,90,0.00,,,0.00,,2013-03-12 19:12:00,
2013-03-12 12:22:00,53.0,50.0,30.16,SW,229,3.0,8.0,89,0.00,,,0.00,,2013-03-12 19:22:00,
2013-03-12 12:32:00,52.0,49.0,30.15,West,260,5.0,9.0,88,0.00,,,0.00,,2013-03-12 19:32:00,
2013-03-12 12:43:00,52.0,49.0,30.15,West,260,5.0,9.0,88,0.00,,,0.00,,2013-03-12 19:43:00,
2013-03-12 12:53:00,52.0,49.0,30.15,SSW,211,4.0,6.0,90,0.00,,,0.00,,2013-03-12 19:53:00,
2013-03-12 13:01:00,52.0,49.0,30.15,SSW,202,4.0,8.0,90,0.00,,,0.00,,2013-03-12 20:01:00,
2013-03-12 13:11:00,52.0,49.0,30.15,SSW,202,4.0,8.0,90,0.00,,,0.00,,2013-03-12 20:11:00,
2013-03-12 13:22:00,53.0,50.0,30.14,SW,225,3.0,5.0,88,0.00,,,0.00,,2013-03-12 20:22:00,
2013-03-12 13:32:00,54.0,50.0,30.14,SSW,200,2.0,5.0,87,0.00,,,0.00,,2013-03-12 20:32:00,
2013-03-12 13:42:00,54.0,50.0,30.14,SSW,200,2.0,5.0,87,0.00,,,0.00,,2013-03-12 20:42:00,
2013-03-12 13:53:00,56.0,52.0,30.14,WSW,245,2.0,4.0,85,0.00,,,0.00,,2013-03-12 20:53:00,
2013-03-12 14:02:00,57.0,52.0,30.13,SW,233,2.0,5.0,82,0.00,,,0.00,,2013-03-12 21:02:00,
2013-03-12 14:12:00,57.0,52.0,30.13,SW,233,2.0,5.0,82,0.00,,,0.00,,2013-03-12 21:12:00,
2013-03-12 14:22:00,58.0,52.0,30.11,WSW,239,4.0,7.0,81,0.00,,,0.00,,2013-03-12 21:22:00,
2013-03-12 14:32:00,58.0,52.0,30.11,SSW,204,4.0,8.0,81,0.00,,,0.00,,2013-03-12 21:32:00,
2013-03-12 14:42:00,58.0,52.0,30.11,SSW,204,4.0,8.0,81,0.00,,,0.00,,2013-03-12 21:42:00,
2013-03-12 14:52:00,58.0,52.0,30.10,SW,217,6.0,9.0,81,0.00,,,0.00,,2013-03-12 21:52:00,
2013-03-12 15:01:00,59.0,53.0,30.10,WSW,237,3.0,8.0,81,0.00,,,0.00,,2013-03-12 22:01:00,
2013-03-12 15:12:00,59.0,53.0,30.10,WSW,237,3.0,8.0,81,0.00,,,0.00,,2013-03-12 22:12:00,
2013-03-12 15:22:00,57.0,51.0,30.10,SW,221,7.0,9.0,81,0.00,,,0.00,,2013-03-12 22:22:00,
2013-03-12 15:32:00,58.0,53.0,30.09,SW,228,2.0,8.0,82,0.00,,,0.00,,2013-03-12 22:32:00,
2013-03-12 15:42:00,58.0,53.0,30.09,SW,228,2.0,8.0,82,0.00,,,0.00,,2013-03-12 22:42:00,
2013-03-12 15:53:00,57.0,52.0,30.09,SSW,212,7.0,9.0,82,0.00,,,0.00,,2013-03-12 22:53:00,
2013-03-12 16:02:00,57.0,52.0,30.09,SSW,213,6.0,10.0,83,0.00,,,0.00,,2013-03-12 23:02:00,
2013-03-12 16:12:00,57.0,52.0,30.09,SSW,213,6.0,10.0,83,0.00,,,0.00,,2013-03-12 23:12:00,
2013-03-12 16:22:00,57.0,52.0,30.09,SW,219,8.0,10.0,84,0.00,,,0.00,,2013-03-12 23:22:00,
2013-03-12 16:34:00,57.0,52.0,30.09,SW,229,5.0,9.0,84,0.00,,,0.00,,2013-03-12 23:34:00,
2013-03-12 16:42:00,57.0,52.0,30.09,SW,229,5.0,9.0,84,0.00,,,0.00,,2013-03-12 23:42:00,
2013-03-12 16:52:00,58.0,52.0,30.09,SSW,203,4.0,8.0,81,0.00,,,0.00,,2013-03-12 23:52:00,
2013-03-12 17:02:00,58.0,53.0,30.09,WSW,241,4.0,8.0,82,0.00,,,0.00,,2013-03-13 00:02:00,
2013-03-12 17:12:00,58.0,53.0,30.09,WSW,241,4.0,8.0,82,0.00,,,0.00,,2013-03-13 00:12:00,
2013-03-12 17:22:00,59.0,53.0,30.09,SSW,206,5.0,7.0,81,0.00,,,0.00,,2013-03-13 00:22:00,
2013-03-12 17:32:00,58.0,53.0,30.09,SSW,206,3.0,8.0,83,0.00,,,0.00,,2013-03-13 00:32:00,
2013-03-12 17:42:00,58.0,53.0,30.09,SSW,206,3.0,8.0,83,0.00,,,0.00,,2013-03-13 00:42:00,
2013-03-12 17:53:00,57.0,53.0,30.08,SW,214,3.0,9.0,85,0.00,,,0.00,,2013-03-13 00:53:00,
2013-03-12 18:02:00,58.0,53.0,30.08,SSE,162,2.0,6.0,83,0.00,,,0.00,,2013-03-13 01:02:00,
2013-03-12 18:12:00,58.0,53.0,30.08,SSE,162,2.0,6.0,83,0.00,,,0.00,,2013-03-13 01:12:00,
2013-03-12 18:22:00,59.0,54.0,30.08,SW,234,1.0,4.0,83,0.00,,,0.00,,2013-03-13 01:22:00,
2013-03-12 18:31:00,59.0,53.0,30.09,SW,218,1.0,2.0,81,0.00,,,0.00,,2013-03-13 01:31:00,
2013-03-12 18:42:00,59.0,53.0,30.09,SW,218,1.0,2.0,81,0.00,,,0.00,,2013-03-13 01:42:00,
2013-03-12 18:52:00,58.0,53.0,30.09,SE,138,2.0,3.0,82,0.00,,,0.00,,2013-03-13 01:52:00,
2013-03-12 19:02:00,58.0,53.0,30.09,SSE,167,3.0,6.0,84,0.00,,,0.00,,2013-03-13 02:02:00,
2013-03-12 19:11:00,58.0,53.0,30.09,SSE,167,3.0,6.0,84,0.00,,,0.00,,2013-03-13 02:11:00,
2013-03-12 19:22:00,56.0,52.0,30.09,SW,231,2.0,5.0,86,0.00,,,0.00,,2013-03-13 02:22:00,
2013-03-12 19:31:00,55.0,52.0,30.09,SE,146,2.0,5.0,88,0.00,,,0.00,,2013-03-13 02:31:00,
2013-03-12 19:42:00,55.0,52.0,30.09,SE,146,2.0,5.0,88,0.00,,,0.00,,2013-03-13 02:42:00,
2013-03-12 19:52:00,54.0,51.0,30.09,SW,231,3.0,6.0,89,0.00,,,0.00,,2013-03-13 02:52:00,
2013-03-12 20:01:00,53.0,50.0,30.09,SE,144,2.0,3.0,91,0.00,,,0.00,,2013-03-13 03:01:00,
2013-03-12 20:12:00,53.0,50.0,30.09,SE,144,2.0,3.0,91,0.00,,,0.00,,2013-03-13 03:12:00,
2013-03-12 20:22:00,53.0,51.0,30.10,WSW,240,2.0,4.0,92,0.00,,,0.00,,2013-03-13 03:22:00,
2013-03-12 20:31:00,53.0,51.0,30.10,SW,228,3.0,5.0,92,0.00,,,0.00,,2013-03-13 03:31:00,
2013-03-12 20:42:00,53.0,51.0,30.10,SW,228,3.0,5.0,92,0.00,,,0.00,,2013-03-13 03:42:00,
2013-03-12 20:52:00,53.0,51.0,30.11,WSW,253,2.0,7.0,92,0.00,,,0.00,,2013-03-13 03:52:00,
2013-03-12 21:02:00,53.0,51.0,30.11,SSW,195,4.0,7.0,93,0.00,,,0.00,,2013-03-13 04:02:00,
2013-03-12 21:12:00,53.0,51.0,30.11,SSW,195,4.0,7.0,93,0.00,,,0.00,,2013-03-13 04:12:00,
2013-03-12 21:22:00,52.0,50.0,30.12,South,182,4.0,7.0,94,0.00,,,0.00,,2013-03-13 04:22:00,
2013-03-12 21:31:00,52.0,50.0,30.12,SSE,163,2.0,6.0,93,0.00,,,0.00,,2013-03-13 04:31:00,
2013-03-12 21:42:00,52.0,50.0,30.12,SSE,163,2.0,6.0,93,0.00,,,0.00,,2013-03-13 04:42:00,
2013-03-12 21:53:00,52.0,50.0,30.11,SSE,167,4.0,6.0,93,0.00,,,0.00,,2013-03-13 04:53:00,
2013-03-12 22:01:00,52.0,50.0,30.11,South,188,6.0,8.0,94,0.00,,,0.00,,2013-03-13 05:01:00,
2013-03-12 22:12:00,52.0,50.0,30.11,South,188,6.0,8.0,94,0.00,,,0.00,,2013-03-13 05:12:00,
2013-03-12 22:22:00,52.0,50.0,30.12,SW,233,2.0,8.0,94,0.00,,,0.00,,2013-03-13 05:22:00,
2013-03-12 22:31:00,52.0,50.0,30.12,SW,236,4.0,8.0,93,0.00,,,0.00,,2013-03-13 05:31:00,
2013-03-12 22:42:00,52.0,50.0,30.12,SW,236,4.0,8.0,93,0.00,,,0.00,,2013-03-13 05:42:00,
2013-03-12 22:52:00,51.0,49.0,30.13,WSW,255,7.0,11.0,93,0.00,,,0.00,,2013-03-13 05:52:00,
2013-03-12 23:01:00,51.0,49.0,30.13,SW,228,8.0,11.0,94,0.00,,,0.00,,2013-03-13 06:01:00,
2013-03-12 23:12:00,51.0,49.0,30.13,SW,228,8.0,11.0,94,0.00,,,0.00,,2013-03-13 06:12:00,
2013-03-12 23:22:00,51.0,50.0,30.13,SW,229,5.0,11.0,95,0.00,,,0.00,,2013-03-13 06:22:00,
2013-03-12 23:32:00,50.0,49.0,30.13,WSW,245,6.0,10.0,95,0.00,,,0.00,,2013-03-13 06:32:00,
2013-03-12 23:42:00,50.0,49.0,30.13,WSW,245,6.0,10.0,95,0.00,,,0.00,,2013-03-13 06:42:00,
2013-03-12 23:52:00,50.0,49.0,30.14,SW,236,6.0,10.0,95,0.00,,,0.00,,2013-03-13 06:52:00,